Location: Edoum�
(0.9447°N, 10.6482°E)
Time: 23:30:41
(UTC+00:00)

Delta 2 Rocket - Pass Details

Date: 07 June 2020
Orbit: 416 x 807 km, 35.6° (Epoch: 10 July)

Event Time Altitude Azimuth Distance (km) Brightness Sun altitude
Exits shadow 03:16:41 76° 144° (SE) 782 3.9 -27.0°
Maximum altitude 03:16:42 76° 142° (SE) 782 3.9 -27.0°
Drops below altitude 10° 03:22:19 10° 56° (ENE) 2,350 7.5 -25.7°
Sets 03:24:53 0° 55° (NE) 3,296 8.6 -25.1°
